ELECTRON DEB

Last updated on Sun Dec 19 2021 00:02:03 GMT+0000 (Coordinated Universal Time)

1 49471U 21106C 21352.55794120 .00069169 00000+0 12422-2 0 9994 2 49471 42.0124 196.2801 0007687 136.6892 223.4557 15.48930701 4729

Satellite not in orbit